EA3ANS-1 Catalonia ES current weather conditions

sailwx.info

Wind from 010

Air temperature 21.7° C
Dewpoint 9.9° C

Last reported at 2019-Sep-16 21:04 UTC.
Time now 2019-Sep-16 22:12 UTC

Location: N 41°33' E 001°54'.
View on Google Maps.

See reports from other nearby stations

  
Tides and Currents Weather Stations Pressure Air Temp Water Temp Dewpoint Dewpoint Depression Visibility Wind Speed Wind Dir Waves Ship Positions
date/time (UTC)wind fromknots sea level pressurealtimeterstation pressurevisibilityair tempwater tempwave heightnotes
2019-Sep-16 21:04 010 21.7
2019-Sep-16 20:54 010 21.7
2019-Sep-16 20:44 010 22.2
2019-Sep-16 20:34 010 22.2
2019-Sep-16 20:24 010 22.2
2019-Sep-16 20:14 010 22.8
2019-Sep-16 20:04 010 22.8
2019-Sep-16 19:54 010 23.3
2019-Sep-16 19:44 010 23.3
2019-Sep-16 19:34 010 23.9
2019-Sep-16 19:24 039 23.9
2019-Sep-16 19:14 020 24.4
2019-Sep-16 19:04 020 24.4
2019-Sep-16 18:54 020 25.0
2019-Sep-16 18:44 097 25.6
2019-Sep-16 18:34 169 0 gusting 0 25.6
2019-Sep-16 18:24 107 25.6
2019-Sep-16 18:14 134 1 gusting 0 26.1
2019-Sep-16 18:04 075 1 gusting 2 26.1
2019-Sep-16 17:54 108 1 gusting 0 26.7
2019-Sep-16 17:44 111 0 gusting 2 26.7
2019-Sep-16 17:34 101 3 gusting 1 26.7
2019-Sep-16 17:24 132 1 gusting 1 26.7
2019-Sep-16 17:14 167 2 gusting 3 27.2
2019-Sep-16 17:04 162 2 gusting 4 27.2
2019-Sep-16 16:54 122 2 gusting 3 27.8
2019-Sep-16 16:44 180 3 gusting 5 27.8
2019-Sep-16 16:34 158 2 gusting 5 27.8
2019-Sep-16 16:24 141 5 gusting 3 28.3
2019-Sep-16 16:14 122 6 gusting 5 28.3
2019-Sep-16 16:04 174 6 gusting 6 28.9
2019-Sep-16 15:54 190 6 gusting 8 28.9
2019-Sep-16 15:44 172 5 gusting 6 29.4
2019-Sep-16 15:34 172 6 gusting 2 29.4
2019-Sep-16 15:24 135 3 gusting 3 29.4
2019-Sep-16 15:14 184 4 gusting 5 29.4
2019-Sep-16 15:04 180 6 gusting 6 29.4
2019-Sep-16 14:54 184 5 gusting 5 29.4
2019-Sep-16 14:44 149 2 gusting 5 28.9
2019-Sep-16 14:34 132 5 gusting 6 28.9
2019-Sep-16 14:24 165 3 gusting 6 28.9
2019-Sep-16 14:14 131 6 gusting 6 28.9
2019-Sep-16 14:04 131 6 gusting 5 28.9
2019-Sep-16 13:54 156 6 gusting 6 28.9
2019-Sep-16 13:44 180 4 gusting 5 28.9
2019-Sep-16 13:34 208 5 gusting 4 28.3
2019-Sep-16 13:24 114 5 gusting 5 28.3
2019-Sep-16 13:14 156 6 gusting 6 28.9
2019-Sep-16 13:04 181 6 gusting 6 28.3
2019-Sep-16 12:54 150 5 gusting 4 28.3
2019-Sep-16 12:44 098 5 gusting 5 28.9
2019-Sep-16 12:34 160 3 gusting 6 28.9
2019-Sep-16 12:24 167 6 gusting 4 28.9
2019-Sep-16 12:14 158 4 gusting 4 28.3
2019-Sep-16 12:04 165 6 gusting 4 28.3
2019-Sep-16 11:54 183 4 gusting 5 27.8
2019-Sep-16 11:44 101 7 gusting 5 28.3
2019-Sep-16 11:34 158 5 gusting 8 28.9
2019-Sep-16 11:24 156 3 gusting 6 28.9
2019-Sep-16 11:14 120 5 gusting 4 28.9
2019-Sep-16 11:04 155 2 gusting 5 28.9
2019-Sep-16 10:54 188 4 gusting 6 28.9
2019-Sep-16 10:44 098 28.9
2019-Sep-16 10:33 195 0 gusting 5 28.3
2019-Sep-16 10:23 214 3 gusting 3 27.8
2019-Sep-16 10:13 200 2 gusting 2 27.8
2019-Sep-16 10:04 270 1 gusting 1 28.3
2019-Sep-16 09:54 277 28.3
2019-Sep-16 09:44 128 27.2
2019-Sep-16 09:34 276 0 gusting 0 27.2
2019-Sep-16 09:24 191 2 gusting 0 26.7
2019-Sep-16 09:14 269 2 gusting 0 26.1
2019-Sep-16 09:04 325 0 25.6
2019-Sep-16 08:54 269 24.4
2019-Sep-16 08:44 326 1 gusting 0 23.3
2019-Sep-16 08:34 333 4 gusting 4 22.2
2019-Sep-16 08:24 321 5 gusting 3 22.2
2019-Sep-16 08:14 346 2 gusting 3 22.8
2019-Sep-16 08:04 280 0 gusting 2 22.2
2019-Sep-16 07:53 307 0 21.1
2019-Sep-16 07:43 006 2 gusting 2 20.0
2019-Sep-16 07:33 316 3 gusting 5 20.0
2019-Sep-16 07:24 319 3 gusting 1 19.4
2019-Sep-16 07:13 340 2 gusting 1 19.4
2019-Sep-16 07:03 319 3 gusting 4 19.4
2019-Sep-16 06:53 018 18.9
2019-Sep-16 06:43 093 18.9
2019-Sep-16 06:33 093 18.3
2019-Sep-16 06:23 093 18.3
2019-Sep-16 06:14 083 17.8
2019-Sep-16 06:04 290 17.8
2019-Sep-16 05:53 086 17.8
2019-Sep-16 05:43 056 0 gusting 2 17.8
2019-Sep-16 05:33 263 0 gusting 1 17.2
2019-Sep-16 05:23 141 17.2
2019-Sep-16 05:13 141 17.8
2019-Sep-16 05:03 141 17.8
2019-Sep-16 04:54 065 17.8
2019-Sep-16 04:43 065 18.3
2019-Sep-16 04:33 065 18.9
2019-Sep-16 04:23 024 3 18.9
2019-Sep-16 04:13 008 5 gusting 4 19.4
2019-Sep-16 04:04 18.9
2019-Sep-16 03:54 010 3 gusting 4 19.4
2019-Sep-16 03:44 231 3 gusting 0 19.4
2019-Sep-16 03:34 180 1 gusting 1 20.0
2019-Sep-16 03:24 053 3 gusting 2 20.0
2019-Sep-16 03:14 315 2 gusting 6 20.0
2019-Sep-16 03:04 315 5 gusting 4 19.4
2019-Sep-16 02:54 19.4
2019-Sep-16 02:44 340 2 gusting 3 19.4
2019-Sep-16 02:34 359 0 gusting 1 18.9
2019-Sep-16 02:23 359 1 gusting 2 18.9
2019-Sep-16 02:13 330 1 gusting 4 18.9
2019-Sep-16 02:03 330 0 18.3
2019-Sep-16 01:53 048 18.3
2019-Sep-16 01:43 048 18.3
2019-Sep-16 01:33 048 18.3
2019-Sep-16 01:24 113 18.9
2019-Sep-16 01:13 077 18.9
2019-Sep-16 01:03 077 18.9
2019-Sep-16 00:53 077 18.9
2019-Sep-16 00:43 077 18.9
2019-Sep-16 00:33 077 18.9
2019-Sep-16 00:23 077 18.9
2019-Sep-16 00:13 077 18.9
2019-Sep-16 00:03 114 1 gusting 0 19.4
2019-Sep-15 23:53 156 1 gusting 1 19.4
2019-Sep-15 23:43 138 1 gusting 1 20.0
2019-Sep-15 23:33 129 20.6
2019-Sep-15 23:23 252 0 gusting 0 20.6
2019-Sep-15 23:13 004 20.6
2019-Sep-15 23:03 132 20.6
2019-Sep-15 22:53 314 20.6
2019-Sep-15 22:43 011 2 gusting 1 20.6
2019-Sep-15 22:33 051 20.6
2019-Sep-15 22:23 284 1 20.6
2019-Sep-15 22:13 333 20.6
2019-Sep-15 22:03 333 1 20.6
2019-Sep-15 21:53 304 0 20.6
2019-Sep-15 21:43 281 21.1
2019-Sep-15 21:33 281 21.1
2019-Sep-15 21:23 281 21.7
2019-Sep-15 21:13 281 21.7
2019-Sep-15 21:03 281 21.7
2019-Sep-15 20:53 281 22.2
2019-Sep-15 20:43 281 22.2
2019-Sep-15 20:33 281 22.2
2019-Sep-15 20:23 281 22.8
2019-Sep-15 20:13 281 22.8
2019-Sep-15 20:03 281 22.8
2019-Sep-15 19:53 274 22.8
2019-Sep-15 19:43 027 22.8
2019-Sep-15 19:33 027 22.8
2019-Sep-15 19:23 027 23.3
2019-Sep-15 19:13 048 2 gusting 1 23.3
2019-Sep-15 19:03 001 23.9
2019-Sep-15 18:53 001 23.9
2019-Sep-15 18:43 001 23.9
2019-Sep-15 18:33 035 24.4
2019-Sep-15 18:23 035 24.4
2019-Sep-15 18:13 035 24.4
2019-Sep-15 18:03 110 2 gusting 0 24.4
2019-Sep-15 17:53 172 3 gusting 2 24.4
2019-Sep-15 17:43 122 4 gusting 3 25.0
2019-Sep-15 17:33 174 5 gusting 5 25.0
2019-Sep-15 17:23 120 4 gusting 5 25.6
2019-Sep-15 17:13 163 4 gusting 5 25.6
2019-Sep-15 17:03 152 6 gusting 6 26.1
2019-Sep-15 16:53 174 6 gusting 6 26.1
2019-Sep-15 16:43 236 8 gusting 6 26.7
2019-Sep-15 16:33 128 8 gusting 5 26.7
2019-Sep-15 16:23 131 5 gusting 6 26.7
2019-Sep-15 16:13 152 11 gusting 6 27.2
2019-Sep-15 16:03 187 10 gusting 4 27.8
2019-Sep-15 15:53 162 4 gusting 6 28.3
2019-Sep-15 15:43 142 6 gusting 5 28.3
2019-Sep-15 15:33 146 6 gusting 7 28.9
2019-Sep-15 15:23 117 6 gusting 7 29.4
2019-Sep-15 15:13 191 7 gusting 4 29.4
2019-Sep-15 15:03 155 3 gusting 7 29.4
2019-Sep-15 14:53 114 7 gusting 6 29.4
2019-Sep-15 14:43 122 9 gusting 7 29.4
2019-Sep-15 14:33 166 7 gusting 10 29.4
2019-Sep-15 14:23 122 11 gusting 8 29.4
2019-Sep-15 14:13 139 8 gusting 9 30.6
2019-Sep-15 14:03 128 5 gusting 5 30.0
2019-Sep-15 13:53 124 6 gusting 3 30.0
2019-Sep-15 13:43 135 10 gusting 6 30.0
2019-Sep-15 13:33 169 6 gusting 10 30.0
2019-Sep-15 13:23 136 7 gusting 7 31.1
2019-Sep-15 13:13 100 2 gusting 6 30.6
2019-Sep-15 13:03 127 5 gusting 7 30.6
2019-Sep-15 12:53 129 5 gusting 10 31.1
2019-Sep-15 12:43 191 6 gusting 8 30.6
2019-Sep-15 12:33 093 5 gusting 4 31.1
2019-Sep-15 12:23 127 6 gusting 7 31.1
2019-Sep-15 12:13 145 6 gusting 5 30.0
2019-Sep-15 12:03 103 6 gusting 6 30.0
2019-Sep-15 11:53 153 5 gusting 3 30.0
2019-Sep-15 11:43 052 7 gusting 6 30.0
2019-Sep-15 11:33 087 6 gusting 5 29.4
2019-Sep-15 11:23 096 9 gusting 8 29.4
2019-Sep-15 11:13 089 9 gusting 6 28.9
2019-Sep-15 11:03 146 5 gusting 6 29.4
2019-Sep-15 10:53 114 6 gusting 6 28.9
2019-Sep-15 10:43 098 7 gusting 8 28.3
2019-Sep-15 10:33 146 7 gusting 6 28.3
2019-Sep-15 10:23 093 6 gusting 3 28.3
2019-Sep-15 10:13 066 2 gusting 3 27.2
2019-Sep-15 10:03 060 4 gusting 5 26.7
2019-Sep-15 09:53 075 4 gusting 5 27.2
2019-Sep-15 09:43 136 5 gusting 4 26.7
2019-Sep-15 09:33 039 2 gusting 0 26.1
2019-Sep-15 09:23 143 3 gusting 6 26.1
2019-Sep-15 09:13 121 6 gusting 4 25.6
2019-Sep-15 09:03 069 5 gusting 11 25.6
2019-Sep-15 08:53 076 5 gusting 6 25.6
2019-Sep-15 08:43 079 6 gusting 7 25.6
2019-Sep-15 08:33 208 4 gusting 1 25.0
2019-Sep-15 08:23 082 3 gusting 6 24.4
2019-Sep-15 08:13 125 23.3
2019-Sep-15 08:03 233 22.2
2019-Sep-15 07:53 169 0 gusting 2 21.7
2019-Sep-15 07:43 187 1 gusting 0 21.1
2019-Sep-15 07:33 217 1 gusting 0 21.1
2019-Sep-15 07:23 103 20.0
2019-Sep-15 07:13 103 19.4
2019-Sep-15 07:03 103 18.3
2019-Sep-15 06:53 127 18.3
2019-Sep-15 06:43 127 18.3
2019-Sep-15 06:33 107 18.3
2019-Sep-15 06:23 010 18.3
2019-Sep-15 06:13 010 18.3
2019-Sep-15 06:03 010 17.8
2019-Sep-15 05:53 010 17.8
2019-Sep-15 05:43 340 18.3
2019-Sep-15 05:33 032 18.3
2019-Sep-15 05:23 089 17.8
2019-Sep-15 05:13 089 18.3
2019-Sep-15 05:03 080 0 18.3
2019-Sep-15 04:53 120 3 gusting 2 18.3
2019-Sep-15 04:44 098 18.9
2019-Sep-15 04:34 312 18.9
2019-Sep-15 04:24 312 18.9
2019-Sep-15 04:13 312 18.9
2019-Sep-15 04:03 312 18.9
2019-Sep-15 03:53 312 18.9
2019-Sep-15 03:44 110 18.9
2019-Sep-15 03:34 110 19.4
2019-Sep-15 03:24 138 5 gusting 3 20.0
2019-Sep-15 03:14 173 20.0
2019-Sep-15 03:03 084 2 20.0
2019-Sep-15 02:54 070 20.0
2019-Sep-15 02:44 104 3 gusting 2 21.1
2019-Sep-15 02:34 354 2 gusting 2 22.2
2019-Sep-15 02:24 318 0 22.8
2019-Sep-15 02:14 309 6 gusting 5 22.2
2019-Sep-15 02:04 066 22.2
2019-Sep-15 01:54 359 4 gusting 3 21.7
2019-Sep-15 01:44 315 20.6
2019-Sep-15 01:34 315 20.6
2019-Sep-15 01:24 315 20.6
2019-Sep-15 01:14 354 0 gusting 1 20.6
2019-Sep-15 01:04 281 1 gusting 2 21.1
2019-Sep-15 00:54 307 2 gusting 2 21.1
2019-Sep-15 00:44 010 20.6
2019-Sep-15 00:34 255 21.1
2019-Sep-15 00:24 255 21.1
2019-Sep-15 00:14 255 21.1
2019-Sep-15 00:04 007 1 21.1
2019-Sep-14 23:54 332 21.1
2019-Sep-14 23:44 329 3 gusting 5 21.1
2019-Sep-14 23:34 097 21.1
2019-Sep-14 23:24 153 2 gusting 2 21.1
2019-Sep-14 23:14 143 3 gusting 4 21.1
2019-Sep-14 23:04 115 4 gusting 2 21.1
2019-Sep-14 22:54 143 2 gusting 3 21.7
2019-Sep-14 22:44 008 0 gusting 2 21.7
2019-Sep-14 22:34 184 3 gusting 4 21.7
2019-Sep-14 22:24 329 21.7
2019-Sep-14 22:14 329 22.2
2019-Sep-14 22:04 328 22.2